Private Wetterstation Sandau
Wetterdaten: Mittwoch, 16.05.2012
Datum Zeit Temp. A. Feuchte A. Luftdruck Regen Wind Richtung Richtung Taupunkt Windchill
16.05.2012 00:01 9,9 C 83 % 1009,1 hPa 0,0 l/m 7,6 km/h (2 Bft) W 270 7,2 C 9,0 C
16.05.2012 00:06 9,8 C 83 % 1009,1 hPa 0,0 l/m 6,1 km/h (2 Bft) W-SW 247 7,1 C 9,2 C
16.05.2012 00:11 9,8 C 83 % 1009,2 hPa 0,0 l/m 10,4 km/h (2 Bft) W-SW 247 7,1 C 8,3 C
16.05.2012 00:16 9,8 C 83 % 1009,3 hPa 0,0 l/m 7,6 km/h (2 Bft) W-SW 247 7,1 C 8,9 C
16.05.2012 00:21 9,7 C 83 % 1009,2 hPa 0,0 l/m 12,2 km/h (2 Bft) W-SW 247 7,0 C 7,9 C
16.05.2012 00:26 9,6 C 83 % 1009,4 hPa 0,0 l/m 8,6 km/h (2 Bft) W 270 6,9 C 8,4 C
16.05.2012 00:31 9,6 C 83 % 1009,4 hPa 0,0 l/m 7,6 km/h (2 Bft) W-SW 247 6,9 C 8,6 C
16.05.2012 00:36 9,5 C 83 % 1009,4 hPa 0,0 l/m 7,2 km/h (2 Bft) W 270 6,8 C 8,6 C
16.05.2012 00:41 9,4 C 83 % 1009,7 hPa 0,0 l/m 11,5 km/h (2 Bft) W-SW 247 6,7 C 7,7 C
16.05.2012 00:46 9,3 C 82 % 1009,6 hPa 0,0 l/m 5,8 km/h (2 Bft) W 270 6,4 C 8,7 C
16.05.2012 00:51 9,2 C 82 % 1009,5 hPa 0,0 l/m 8,3 km/h (2 Bft) W 270 6,3 C 8,0 C
16.05.2012 00:56 9,1 C 82 % 1009,5 hPa 0,0 l/m 11,9 km/h (2 Bft) W-NW 292 6,2 C 7,2 C
16.05.2012 01:01 9,1 C 82 % 1009,6 hPa 0,0 l/m 5,8 km/h (2 Bft) S-SW 202 6,2 C 8,5 C
16.05.2012 01:06 8,9 C 82 % 1009,6 hPa 0,0 l/m 2,5 km/h (1 Bft) W 270 6,0 C 8,9 C
16.05.2012 01:11 8,9 C 82 % 1009,6 hPa 0,0 l/m 2,9 km/h (1 Bft) W 270 6,0 C 8,9 C
16.05.2012 01:16 8,9 C 82 % 1009,7 hPa 0,0 l/m 6,5 km/h (2 Bft) W-SW 247 6,0 C 8,1 C
16.05.2012 01:21 8,9 C 83 % 1009,8 hPa 0,0 l/m 5,8 km/h (2 Bft) W 270 6,2 C 8,3 C
16.05.2012 01:26 8,9 C 83 % 1009,9 hPa 0,0 l/m 11,5 km/h (2 Bft) W-SW 247 6,2 C 7,1 C
16.05.2012 01:31 8,9 C 83 % 1009,8 hPa 0,0 l/m 6,1 km/h (2 Bft) W-SW 247 6,2 C 8,2 C
16.05.2012 01:36 8,9 C 83 % 1009,7 hPa 0,0 l/m 4,0 km/h (1 Bft) W 270 6,2 C 8,9 C
16.05.2012 01:41 8,9 C 83 % 1009,8 hPa 0,0 l/m 5,0 km/h (1 Bft) W-NW 292 6,2 C 8,5 C
16.05.2012 01:46 8,8 C 83 % 1009,8 hPa 0,0 l/m 14,4 km/h (3 Bft) W 270 6,1 C 6,5 C
16.05.2012 01:51 8,6 C 83 % 1009,8 hPa 0,0 l/m 8,6 km/h (2 Bft) W-NW 292 5,9 C 7,2 C
16.05.2012 01:56 8,4 C 83 % 1009,8 hPa 0,0 l/m 8,3 km/h (2 Bft) W-NW 292 5,7 C 7,1 C
16.05.2012 02:01 8,4 C 83 % 1009,9 hPa 0,0 l/m 4,7 km/h (1 Bft) W 270 5,7 C 8,0 C
16.05.2012 02:06 8,4 C 83 % 1010,1 hPa 0,0 l/m 4,7 km/h (1 Bft) W 270 5,7 C 8,0 C
16.05.2012 02:11 8,3 C 83 % 1009,9 hPa 0,0 l/m 3,2 km/h (1 Bft) W-SW 247 5,6 C 8,3 C
16.05.2012 02:16 8,3 C 83 % 1010,1 hPa 0,0 l/m 4,3 km/h (1 Bft) W 270 5,6 C 8,3 C
16.05.2012 02:21 8,2 C 84 % 1010,1 hPa 0,0 l/m 6,1 km/h (2 Bft) W 270 5,7 C 7,4 C
16.05.2012 02:26 8,2 C 84 % 1010,0 hPa 0,0 l/m 6,1 km/h (2 Bft) W 270 5,7 C 7,4 C
16.05.2012 02:31 8,2 C 84 % 1010,2 hPa 0,0 l/m 8,6 km/h (2 Bft) W-SW 247 5,7 C 6,8 C
16.05.2012 02:36 8,2 C 84 % 1010,3 hPa 0,0 l/m 6,1 km/h (2 Bft) W 270 5,7 C 7,4 C
16.05.2012 02:41 8,3 C 84 % 1010,3 hPa 0,0 l/m 3,6 km/h (1 Bft) W 270 5,8 C 8,3 C
16.05.2012 02:46 8,3 C 84 % 1010,3 hPa 0,0 l/m 5,8 km/h (2 Bft) W-SW 247 5,8 C 7,6 C
16.05.2012 02:51 8,3 C 84 % 1010,3 hPa 0,0 l/m 11,5 km/h (2 Bft) W-SW 247 5,8 C 6,3 C
16.05.2012 02:56 8,2 C 83 % 1010,5 hPa 0,0 l/m 5,4 km/h (1 Bft) W-NW 292 5,5 C 7,6 C
16.05.2012 03:01 8,2 C 83 % 1010,6 hPa 0,0 l/m 7,6 km/h (2 Bft) W-SW 247 5,5 C 7,0 C
16.05.2012 03:06 8,2 C 83 % 1010,6 hPa 0,0 l/m 6,5 km/h (2 Bft) W-SW 247 5,5 C 7,3 C
16.05.2012 03:11 8,2 C 83 % 1010,6 hPa 0,0 l/m 6,1 km/h (2 Bft) SW 225 5,5 C 7,4 C
16.05.2012 03:16 8,1 C 83 % 1010,5 hPa 0,0 l/m 4,7 km/h (1 Bft) W-SW 247 5,4 C 7,7 C
16.05.2012 03:21 8,1 C 83 % 1010,7 hPa 0,0 l/m 8,3 km/h (2 Bft) W-SW 247 5,4 C 6,7 C
16.05.2012 03:26 8,1 C 83 % 1010,6 hPa 0,0 l/m 7,6 km/h (2 Bft) W-SW 247 5,4 C 6,9 C
16.05.2012 03:31 8,1 C 83 % 1010,4 hPa 0,0 l/m 5,8 km/h (2 Bft) W-SW 247 5,4 C 7,3 C
16.05.2012 03:36 7,9 C 83 % 1010,6 hPa 0,0 l/m 6,1 km/h (2 Bft) W-SW 247 5,2 C 7,0 C
16.05.2012 03:41 7,9 C 83 % 1010,4 hPa 0,0 l/m 5,8 km/h (2 Bft) W 270 5,2 C 7,1 C
16.05.2012 03:46 7,8 C 83 % 1010,4 hPa 0,0 l/m 6,5 km/h (2 Bft) W-NW 292 5,1 C 6,8 C
16.05.2012 03:51 7,8 C 83 % 1010,4 hPa 0,0 l/m 8,3 km/h (2 Bft) W 270 5,1 C 6,4 C
16.05.2012 03:56 7,6 C 83 % 1010,4 hPa 0,0 l/m 9,4 km/h (2 Bft) W 270 4,9 C 5,9 C
16.05.2012 04:01 7,6 C 83 % 1010,4 hPa 0,0 l/m 8,3 km/h (2 Bft) W 270 4,9 C 6,1 C
16.05.2012 04:06 7,6 C 83 % 1010,6 hPa 0,0 l/m 9,0 km/h (2 Bft) W-SW 247 4,9 C 6,0 C
16.05.2012 04:11 7,6 C 83 % 1010,6 hPa 0,0 l/m 4,7 km/h (1 Bft) W-NW 292 4,9 C 7,1 C
16.05.2012 04:16 7,5 C 83 % 1010,8 hPa 0,0 l/m 9,0 km/h (2 Bft) W 270 4,8 C 5,8 C
16.05.2012 04:21 7,4 C 83 % 1010,9 hPa 0,0 l/m 10,4 km/h (2 Bft) W 270 4,7 C 5,4 C
16.05.2012 04:26 7,4 C 83 % 1010,9 hPa 0,0 l/m 5,8 km/h (2 Bft) W-SW 247 4,7 C 6,5 C
16.05.2012 04:31 7,4 C 83 % 1011,0 hPa 0,0 l/m 3,2 km/h (1 Bft) W-SW 247 4,7 C 7,4 C
16.05.2012 04:36 7,4 C 83 % 1010,9 hPa 0,0 l/m 3,6 km/h (1 Bft) W 270 4,7 C 7,4 C
16.05.2012 04:41 7,4 C 83 % 1010,8 hPa 0,0 l/m 8,3 km/h (2 Bft) W-SW 247 4,7 C 5,9 C
16.05.2012 04:46 7,4 C 83 % 1010,9 hPa 0,0 l/m 5,4 km/h (1 Bft) SW 225 4,7 C 6,7 C
16.05.2012 04:51 7,3 C 83 % 1011,0 hPa 0,0 l/m 16,2 km/h (3 Bft) W-SW 247 4,6 C 4,4 C
16.05.2012 04:56 7,3 C 83 % 1011,0 hPa 0,0 l/m 7,9 km/h (2 Bft) W 270 4,6 C 5,9 C
16.05.2012 05:01 7,3 C 84 % 1011,0 hPa 0,0 l/m 8,3 km/h (2 Bft) W 270 4,8 C 5,8 C
16.05.2012 05:06 7,3 C 84 % 1011,2 hPa 0,0 l/m 14,0 km/h (3 Bft) W 270 4,8 C 4,7 C
16.05.2012 05:11 7,3 C 84 % 1011,3 hPa 0,0 l/m 8,6 km/h (2 Bft) W 270 4,8 C 5,7 C
16.05.2012 05:16 7,4 C 84 % 1011,5 hPa 0,0 l/m 11,5 km/h (2 Bft) W 270 4,9 C 5,2 C
16.05.2012 05:21 7,5 C 84 % 1011,5 hPa 0,0 l/m 7,6 km/h (2 Bft) W-SW 247 5,0 C 6,2 C
16.05.2012 05:26 7,6 C 84 % 1011,6 hPa 0,0 l/m 6,8 km/h (2 Bft) W 270 5,1 C 6,5 C
16.05.2012 05:31 7,6 C 84 % 1011,7 hPa 0,0 l/m 6,8 km/h (2 Bft) W 270 5,1 C 6,5 C
16.05.2012 05:36 7,6 C 84 % 1011,8 hPa 0,0 l/m 7,2 km/h (2 Bft) W 270 5,1 C 6,4 C
16.05.2012 05:41 7,8 C 84 % 1011,9 hPa 0,0 l/m 11,2 km/h (2 Bft) W-NW 292 5,3 C 5,8 C
16.05.2012 05:46 7,8 C 84 % 1011,7 hPa 0,0 l/m 7,6 km/h (2 Bft) W-SW 247 5,3 C 6,5 C
16.05.2012 05:51 7,8 C 84 % 1011,8 hPa 0,0 l/m 5,0 km/h (1 Bft) NW 315 5,3 C 7,3 C
16.05.2012 05:56 7,7 C 84 % 1011,7 hPa 0,0 l/m 2,9 km/h (1 Bft) W-SW 247 5,2 C 7,7 C
16.05.2012 06:01 7,7 C 85 % 1011,6 hPa 0,0 l/m 10,8 km/h (2 Bft) W-NW 292 5,3 C 5,7 C
16.05.2012 06:06 7,6 C 85 % 1011,6 hPa 0,0 l/m 10,8 km/h (2 Bft) W 270 5,2 C 5,6 C
16.05.2012 06:11 7,8 C 85 % 1011,5 hPa 0,0 l/m 6,5 km/h (2 Bft) W-NW 292 5,4 C 6,8 C
16.05.2012 06:16 7,9 C 85 % 1011,6 hPa 0,0 l/m 10,1 km/h (2 Bft) W-SW 247 5,5 C 6,1 C
16.05.2012 06:21 7,9 C 84 % 1011,6 hPa 0,0 l/m 4,3 km/h (1 Bft) S-SW 202 5,4 C 7,9 C
16.05.2012 06:26 7,9 C 84 % 1011,7 hPa 0,0 l/m 7,2 km/h (2 Bft) W-NW 292 5,4 C 6,7 C
16.05.2012 06:31 7,9 C 84 % 1011,9 hPa 0,0 l/m 5,4 km/h (1 Bft) SW 225 5,4 C 7,2 C
16.05.2012 06:36 7,9 C 84 % 1012,0 hPa 0,0 l/m 10,1 km/h (2 Bft) W-NW 292 5,4 C 6,1 C
16.05.2012 06:41 7,8 C 83 % 1012,2 hPa 0,0 l/m 7,6 km/h (2 Bft) NW 315 5,1 C 6,5 C
16.05.2012 06:46 7,9 C 83 % 1012,3 hPa 0,0 l/m 4,0 km/h (1 Bft) SW 225 5,2 C 7,9 C
16.05.2012 06:51 7,9 C 83 % 1012,4 hPa 0,0 l/m 7,6 km/h (2 Bft) NW 315 5,2 C 6,6 C
16.05.2012 06:56 7,9 C 83 % 1012,5 hPa 0,0 l/m 8,3 km/h (2 Bft) W 270 5,2 C 6,5 C
16.05.2012 07:01 7,9 C 83 % 1012,5 hPa 0,0 l/m 18,7 km/h (3 Bft) W 270 5,2 C 4,9 C
16.05.2012 07:06 7,9 C 83 % 1012,7 hPa 0,0 l/m 14,0 km/h (3 Bft) W-NW 292 5,2 C 5,5 C
16.05.2012 07:11 7,9 C 83 % 1012,8 hPa 0,0 l/m 4,7 km/h (1 Bft) W 270 5,2 C 7,5 C
16.05.2012 07:16 7,9 C 83 % 1012,8 hPa 0,0 l/m 6,8 km/h (2 Bft) W-SW 247 5,2 C 6,8 C
16.05.2012 07:21 8,1 C 83 % 1012,9 hPa 0,0 l/m 6,1 km/h (2 Bft) W 270 5,4 C 7,3 C
16.05.2012 07:26 8,3 C 83 % 1013,0 hPa 0,0 l/m 15,1 km/h (3 Bft) W-SW 247 5,6 C 5,8 C
16.05.2012 07:31 8,5 C 83 % 1013,1 hPa 0,0 l/m 6,5 km/h (2 Bft) W-SW 247 5,8 C 7,6 C
16.05.2012 07:36 8,7 C 82 % 1013,2 hPa 0,0 l/m 16,2 km/h (3 Bft) W-NW 292 5,8 C 6,2 C
16.05.2012 07:41 8,6 C 82 % 1013,2 hPa 0,0 l/m 6,8 km/h (2 Bft) W 270 5,7 C 7,6 C
16.05.2012 07:46 8,6 C 81 % 1013,3 hPa 0,0 l/m 5,8 km/h (2 Bft) W 270 5,5 C 7,9 C
16.05.2012 07:51 8,5 C 81 % 1013,3 hPa 0,0 l/m 6,5 km/h (2 Bft) W-SW 247 5,4 C 7,6 C
16.05.2012 07:56 8,5 C 81 % 1013,3 hPa 0,0 l/m 10,1 km/h (2 Bft) NW 315 5,4 C 6,8 C
16.05.2012 08:01 8,5 C 81 % 1013,4 hPa 0,0 l/m 16,9 km/h (3 Bft) NW 315 5,4 C 5,8 C
16.05.2012 08:06 8,5 C 81 % 1013,4 hPa 0,0 l/m 6,8 km/h (2 Bft) W 270 5,4 C 7,5 C
16.05.2012 08:11 8,6 C 81 % 1013,4 hPa 0,0 l/m 13,7 km/h (3 Bft) W 270 5,5 C 6,4 C
16.05.2012 08:16 8,6 C 81 % 1013,4 hPa 0,0 l/m 15,1 km/h (3 Bft) W 270 5,5 C 6,2 C
16.05.2012 08:21 8,7 C 81 % 1013,4 hPa 0,0 l/m 9,7 km/h (2 Bft) W-NW 292 5,6 C 7,1 C
16.05.2012 08:26 8,8 C 81 % 1013,4 hPa 0,0 l/m 13,3 km/h (3 Bft) W-NW 292 5,7 C 6,7 C
16.05.2012 08:31 9,0 C 81 % 1013,5 hPa 0,0 l/m 16,6 km/h (3 Bft) W 270 5,9 C 6,5 C
16.05.2012 08:36 9,3 C 79 % 1013,4 hPa 0,0 l/m 14,0 km/h (3 Bft) NW 315 5,8 C 7,2 C
16.05.2012 08:41 9,4 C 79 % 1013,5 hPa 0,0 l/m 14,0 km/h (3 Bft) W 270 5,9 C 7,3 C
16.05.2012 08:46 9,3 C 78 % 1013,6 hPa 0,0 l/m 16,6 km/h (3 Bft) W 270 5,7 C 6,9 C
16.05.2012 08:51 9,2 C 78 % 1013,7 hPa 0,0 l/m 14,8 km/h (3 Bft) W-SW 247 5,6 C 7,0 C
16.05.2012 08:56 9,1 C 78 % 1013,8 hPa 0,0 l/m 11,5 km/h (2 Bft) W 270 5,5 C 7,3 C
16.05.2012 09:01 9,1 C 78 % 1013,8 hPa 0,0 l/m 13,7 km/h (3 Bft) NW 315 5,5 C 7,0 C
16.05.2012 09:06 9,0 C 78 % 1013,9 hPa 0,0 l/m 16,6 km/h (3 Bft) W-NW 292 5,4 C 6,5 C
16.05.2012 09:11 9,1 C 78 % 1013,9 hPa 0,0 l/m 20,9 km/h (4 Bft) W-NW 292 5,5 C 6,2 C
16.05.2012 09:16 8,9 C 78 % 1014,1 hPa 0,0 l/m 13,7 km/h (3 Bft) W-NW 292 5,3 C 6,7 C
16.05.2012 09:21 8,9 C 77 % 1014,0 hPa 0,0 l/m 23,4 km/h (4 Bft) W 270 5,1 C 5,7 C
16.05.2012 09:26 8,9 C 78 % 1014,1 hPa 0,0 l/m 16,2 km/h (3 Bft) W-NW 292 5,3 C 6,4 C
16.05.2012 09:31 9,1 C 78 % 1014,2 hPa 0,0 l/m 8,6 km/h (2 Bft) W-NW 292 5,5 C 7,8 C
16.05.2012 09:36 9,4 C 77 % 1014,3 hPa 0,0 l/m 9,0 km/h (2 Bft) W-NW 292 5,6 C 8,1 C
16.05.2012 09:41 9,6 C 77 % 1014,4 hPa 0,0 l/m 13,3 km/h (3 Bft) W-NW 292 5,8 C 7,6 C
16.05.2012 09:46 9,8 C 76 % 1014,5 hPa 0,0 l/m 9,7 km/h (2 Bft) W 270 5,8 C 8,4 C
16.05.2012 09:51 9,6 C 75 % 1014,5 hPa 0,0 l/m 12,6 km/h (3 Bft) W 270 5,4 C 7,7 C
16.05.2012 09:56 9,4 C 74 % 1014,6 hPa 0,0 l/m 14,4 km/h (3 Bft) W-NW 292 5,0 C 7,3 C
16.05.2012 10:01 9,4 C 74 % 1014,6 hPa 0,0 l/m 16,9 km/h (3 Bft) W-NW 292 5,0 C 6,9 C
16.05.2012 10:06 9,5 C 74 % 1014,7 hPa 0,0 l/m 6,5 km/h (2 Bft) W-NW 292 5,1 C 8,8 C
16.05.2012 10:11 9,8 C 74 % 1014,7 hPa 0,0 l/m 7,9 km/h (2 Bft) NW 315 5,4 C 8,8 C
16.05.2012 10:16 9,9 C 71 % 1014,6 hPa 0,0 l/m 10,8 km/h (2 Bft) W-NW 292 4,9 C 8,4 C
16.05.2012 10:21 9,9 C 71 % 1014,7 hPa 0,0 l/m 12,6 km/h (3 Bft) W-NW 292 4,9 C 8,1 C
16.05.2012 10:26 10,1 C 71 % 1014,7 hPa 0,0 l/m 29,5 km/h (5 Bft) W-NW 292 5,1 C 10,1 C
16.05.2012 10:31 10,1 C 70 % 1014,8 hPa 0,0 l/m 16,9 km/h (3 Bft) W 270 4,9 C 10,1 C
16.05.2012 10:36 10,5 C 69 % 1014,6 hPa 0,0 l/m 11,2 km/h (2 Bft) W-SW 247 5,1 C 10,5 C
16.05.2012 10:41 10,7 C 68 % 1014,9 hPa 0,0 l/m 12,6 km/h (3 Bft) W-SW 247 5,0 C 10,7 C
16.05.2012 10:46 10,6 C 69 % 1014,9 hPa 0,0 l/m 16,6 km/h (3 Bft) W 270 5,2 C 10,6 C
16.05.2012 10:51 10,8 C 69 % 1014,9 hPa 0,0 l/m 25,2 km/h (4 Bft) W-SW 247 5,3 C 10,8 C
16.05.2012 10:56 10,9 C 68 % 1015,0 hPa 0,0 l/m 6,1 km/h (2 Bft) W-NW 292 5,2 C 10,9 C
16.05.2012 11:01 11,2 C 68 % 1014,9 hPa 0,0 l/m 13,0 km/h (3 Bft) W-NW 292 5,5 C 11,2 C
16.05.2012 11:06 11,4 C 66 % 1015,0 hPa 0,0 l/m 26,6 km/h (4 Bft) W-NW 292 5,3 C 11,4 C
16.05.2012 11:11 11,4 C 65 % 1015,1 hPa 0,0 l/m 18,0 km/h (3 Bft) W-NW 292 5,1 C 11,4 C
16.05.2012 11:16 11,6 C 63 % 1015,2 hPa 0,0 l/m 9,0 km/h (2 Bft) W-NW 292 4,8 C 11,6 C
16.05.2012 11:21 11,8 C 63 % 1015,2 hPa 0,0 l/m 23,0 km/h (4 Bft) W 270 5,0 C 11,8 C
16.05.2012 11:26 11,6 C 62 % 1015,3 hPa 0,0 l/m 16,6 km/h (3 Bft) W 270 4,6 C 11,6 C
16.05.2012 11:31 11,8 C 62 % 1015,4 hPa 0,0 l/m 23,0 km/h (4 Bft) W-NW 292 4,8 C 11,8 C
16.05.2012 11:36 11,9 C 62 % 1015,3 hPa 0,0 l/m 9,0 km/h (2 Bft) W 270 4,9 C 11,9 C
16.05.2012 11:41 12,1 C 60 % 1015,3 hPa 0,0 l/m 15,5 km/h (3 Bft) W-NW 292 4,6 C 12,1 C
16.05.2012 11:46 12,1 C 60 % 1015,4 hPa 0,0 l/m 10,1 km/h (2 Bft) W 270 4,6 C 12,1 C
16.05.2012 11:51 12,2 C 60 % 1015,4 hPa 0,0 l/m 21,2 km/h (4 Bft) W-NW 292 4,7 C 12,2 C
16.05.2012 11:56 12,1 C 60 % 1015,5 hPa 0,0 l/m 16,2 km/h (3 Bft) W-NW 292 4,6 C 12,1 C
16.05.2012 12:01 12,4 C 59 % 1015,5 hPa 0,0 l/m 14,8 km/h (3 Bft) N-NW 337 4,6 C 12,4 C
16.05.2012 12:06 12,6 C 58 % 1015,5 hPa 0,0 l/m 4,7 km/h (1 Bft) NW 315 4,6 C 12,6 C
16.05.2012 12:11 12,8 C 56 % 1015,7 hPa 0,0 l/m 20,9 km/h (4 Bft) W 270 4,2 C 12,8 C
16.05.2012 12:16 13,0 C 55 % 1015,6 hPa 0,0 l/m 23,4 km/h (4 Bft) W-NW 292 4,2 C 13,0 C
16.05.2012 12:21 12,9 C 57 % 1015,6 hPa 0,0 l/m 20,2 km/h (4 Bft) W-NW 292 4,6 C 12,9 C
16.05.2012 12:26 13,1 C 55 % 1015,6 hPa 0,0 l/m 16,9 km/h (3 Bft) W 270 4,3 C 13,1 C
16.05.2012 12:31 13,3 C 55 % 1015,7 hPa 0,0 l/m 11,9 km/h (2 Bft) W 270 4,5 C 13,3 C
16.05.2012 12:36 13,3 C 53 % 1015,7 hPa 0,0 l/m 13,3 km/h (3 Bft) W-NW 292 3,9 C 13,3 C
16.05.2012 12:41 13,1 C 53 % 1015,7 hPa 0,0 l/m 24,8 km/h (4 Bft) W 270 3,7 C 13,1 C
16.05.2012 12:46 13,1 C 53 % 1015,7 hPa 0,0 l/m 11,5 km/h (2 Bft) W-NW 292 3,7 C 13,1 C
16.05.2012 12:51 13,3 C 54 % 1015,8 hPa 0,0 l/m 14,0 km/h (3 Bft) W-NW 292 4,2 C 13,3 C
16.05.2012 12:56 13,6 C 54 % 1015,7 hPa 0,0 l/m 11,5 km/h (2 Bft) W 270 4,5 C 13,6 C
16.05.2012 13:01 13,8 C 53 % 1015,7 hPa 0,0 l/m 17,3 km/h (3 Bft) W 270 4,4 C 13,8 C
16.05.2012 13:06 13,8 C 53 % 1015,8 hPa 0,0 l/m 17,6 km/h (3 Bft) W-NW 292 4,4 C 13,8 C
16.05.2012 13:11 13,8 C 53 % 1015,7 hPa 0,0 l/m 9,7 km/h (2 Bft) W 270 4,4 C 13,8 C
16.05.2012 13:16 13,8 C 53 % 1015,8 hPa 0,0 l/m 12,2 km/h (2 Bft) W-NW 292 4,4 C 13,8 C
16.05.2012 13:21 13,6 C 53 % 1015,8 hPa 0,0 l/m 15,8 km/h (3 Bft) W-NW 292 4,2 C 13,6 C
16.05.2012 13:26 13,3 C 53 % 1015,9 hPa 0,0 l/m 15,5 km/h (3 Bft) W-NW 292 3,9 C 13,3 C
16.05.2012 13:31 13,0 C 54 % 1016,0 hPa 0,0 l/m 4,7 km/h (1 Bft) O-NO 67 3,9 C 13,0 C
16.05.2012 13:36 12,8 C 54 % 1016,1 hPa 0,0 l/m 14,8 km/h (3 Bft) W-NW 292 3,7 C 12,8 C
16.05.2012 13:41 12,5 C 57 % 1016,3 hPa 0,0 l/m 9,0 km/h (2 Bft) W 270 4,2 C 12,5 C
16.05.2012 13:46 12,4 C 58 % 1016,4 hPa 0,0 l/m 9,4 km/h (2 Bft) SW 225 4,4 C 12,4 C
16.05.2012 13:51 12,2 C 59 % 1016,4 hPa 0,0 l/m 18,4 km/h (3 Bft) W-NW 292 4,4 C 12,2 C
16.05.2012 13:56 12,3 C 59 % 1016,5 hPa 0,0 l/m 6,1 km/h (2 Bft) W 270 4,5 C 12,3 C
16.05.2012 14:01 12,6 C 60 % 1016,6 hPa 0,0 l/m 19,1 km/h (3 Bft) NW 315 5,0 C 12,6 C
16.05.2012 14:06 12,8 C 60 % 1017,1 hPa 0,0 l/m 20,2 km/h (4 Bft) NW 315 5,2 C 12,8 C
16.05.2012 14:11 11,8 C 63 % 1017,2 hPa 0,5 l/m 13,3 km/h (3 Bft) W-NW 292 5,0 C 11,8 C
16.05.2012 14:16 10,8 C 65 % 1017,2 hPa 0,5 l/m 12,6 km/h (3 Bft) W 270 4,5 C 10,8 C
16.05.2012 14:21 10,1 C 68 % 1017,0 hPa 0,0 l/m 5,8 km/h (2 Bft) W-NW 292 4,5 C 10,1 C
16.05.2012 14:26 9,9 C 69 % 1016,9 hPa 0,0 l/m 6,8 km/h (2 Bft) W 270 4,5 C 9,2 C
16.05.2012 14:31 10,2 C 72 % 1016,9 hPa 0,0 l/m 11,5 km/h (2 Bft) SW 225 5,4 C 10,2 C
16.05.2012 14:36 10,8 C 72 % 1016,9 hPa 0,0 l/m 11,2 km/h (2 Bft) W-NW 292 6,0 C 10,8 C
16.05.2012 14:41 11,3 C 72 % 1017,0 hPa 0,0 l/m 8,6 km/h (2 Bft) W-NW 292 6,4 C 11,3 C
16.05.2012 14:46 11,8 C 71 % 1017,0 hPa 0,0 l/m 15,5 km/h (3 Bft) W 270 6,7 C 11,8 C
16.05.2012 14:51 11,9 C 70 % 1017,0 hPa 0,0 l/m 21,6 km/h (4 Bft) NW 315 6,6 C 11,9 C
16.05.2012 14:56 12,2 C 71 % 1017,2 hPa 0,0 l/m 16,2 km/h (3 Bft) W-NW 292 7,1 C 12,2 C
16.05.2012 15:01 12,4 C 68 % 1017,4 hPa 0,0 l/m 10,4 km/h (2 Bft) W-NW 292 6,7 C 12,4 C
16.05.2012 15:06 12,8 C 67 % 1017,3 hPa 0,0 l/m 12,6 km/h (3 Bft) NO 45 6,8 C 12,8 C
16.05.2012 15:11 12,9 C 66 % 1017,4 hPa 0,0 l/m 15,1 km/h (3 Bft) NW 315 6,7 C 12,9 C
16.05.2012 15:16 12,9 C 64 % 1017,5 hPa 0,0 l/m 27,4 km/h (4 Bft) NW 315 6,3 C 12,9 C
16.05.2012 15:21 12,5 C 65 % 1017,6 hPa 0,0 l/m 25,2 km/h (4 Bft) NW 315 6,1 C 12,5 C
16.05.2012 15:26 12,2 C 64 % 1017,6 hPa 0,0 l/m 4,0 km/h (1 Bft) O 90 5,6 C 12,2 C
16.05.2012 15:31 11,8 C 66 % 1017,6 hPa 0,0 l/m 13,3 km/h (3 Bft) N 360 5,7 C 11,8 C
16.05.2012 15:36 11,6 C 68 % 1017,6 hPa 0,0 l/m 9,7 km/h (2 Bft) N-NW 337 5,9 C 11,6 C
16.05.2012 15:41 11,3 C 67 % 1017,6 hPa 0,0 l/m 16,2 km/h (3 Bft) W 270 5,4 C 11,3 C
16.05.2012 15:46 11,0 C 67 % 1017,6 hPa 0,0 l/m 10,1 km/h (2 Bft) NO 45 5,1 C 11,0 C
16.05.2012 15:51 10,9 C 69 % 1017,8 hPa 0,0 l/m 14,8 km/h (3 Bft) NW 315 5,4 C 10,9 C
16.05.2012 15:56 10,9 C 69 % 1017,8 hPa 0,0 l/m 24,5 km/h (4 Bft) NW 315 5,4 C 10,9 C
16.05.2012 16:01 10,9 C 70 % 1017,9 hPa 0,0 l/m 23,4 km/h (4 Bft) W-NW 292 5,6 C 10,9 C
16.05.2012 16:06 11,2 C 71 % 1017,8 hPa 0,0 l/m 18,0 km/h (3 Bft) N-NW 337 6,1 C 11,2 C
16.05.2012 16:11 11,6 C 67 % 1018,0 hPa 0,0 l/m 16,9 km/h (3 Bft) W-NW 292 5,7 C 11,6 C
16.05.2012 16:16 11,6 C 66 % 1018,0 hPa 0,0 l/m 13,7 km/h (3 Bft) W-NW 292 5,5 C 11,6 C
16.05.2012 16:21 11,8 C 66 % 1017,9 hPa 0,0 l/m 19,4 km/h (3 Bft) W 270 5,7 C 11,8 C
16.05.2012 16:26 12,0 C 66 % 1017,9 hPa 0,0 l/m 15,5 km/h (3 Bft) W-NW 292 5,8 C 12,0 C
16.05.2012 16:31 12,4 C 65 % 1017,8 hPa 0,0 l/m 14,4 km/h (3 Bft) N 360 6,0 C 12,4 C
16.05.2012 16:36 12,6 C 63 % 1017,9 hPa 0,0 l/m 15,5 km/h (3 Bft) NW 315 5,7 C 12,6 C
16.05.2012 16:41 12,7 C 63 % 1018,0 hPa 0,0 l/m 5,8 km/h (2 Bft) W-NW 292 5,8 C 12,7 C
16.05.2012 16:46 12,9 C 62 % 1018,0 hPa 0,0 l/m 10,8 km/h (2 Bft) NO 45 5,8 C 12,9 C
16.05.2012 16:51 12,8 C 63 % 1017,9 hPa 0,0 l/m 20,5 km/h (4 Bft) W-SW 247 5,9 C 12,8 C
16.05.2012 16:56 13,0 C 63 % 1018,0 hPa 0,0 l/m 18,4 km/h (3 Bft) W 270 6,1 C 13,0 C
16.05.2012 17:01 13,3 C 61 % 1018,0 hPa 0,0 l/m 6,1 km/h (2 Bft) NW 315 5,9 C 13,3 C
16.05.2012 17:06 13,2 C 60 % 1018,0 hPa 0,0 l/m 7,6 km/h (2 Bft) N-NW 337 5,6 C 13,2 C
16.05.2012 17:11 13,0 C 59 % 1018,1 hPa 0,0 l/m 29,5 km/h (5 Bft) W-NW 292 5,2 C 13,0 C
16.05.2012 17:16 12,9 C 60 % 1018,0 hPa 0,0 l/m 14,4 km/h (3 Bft) W-NW 292 5,3 C 12,9 C
16.05.2012 17:21 13,2 C 59 % 1018,0 hPa 0,0 l/m 4,7 km/h (1 Bft) NW 315 5,4 C 13,2 C
16.05.2012 17:26 13,2 C 60 % 1018,1 hPa 0,0 l/m 5,4 km/h (1 Bft) W 270 5,6 C 13,2 C
16.05.2012 17:31 13,4 C 58 % 1018,1 hPa 0,0 l/m 4,7 km/h (1 Bft) NO 45 5,3 C 13,4 C
16.05.2012 17:36 13,1 C 57 % 1018,0 hPa 0,0 l/m 4,0 km/h (1 Bft) NO 45 4,8 C 13,1 C
16.05.2012 17:41 12,7 C 56 % 1018,1 hPa 0,0 l/m 3,2 km/h (1 Bft) W 270 4,2 C 12,7 C
16.05.2012 17:46 12,6 C 58 % 1018,1 hPa 0,0 l/m 4,7 km/h (1 Bft) N-NO 22 4,6 C 12,6 C
16.05.2012 17:51 12,7 C 58 % 1018,0 hPa 0,0 l/m 11,5 km/h (2 Bft) W-NW 292 4,7 C 12,7 C
16.05.2012 17:56 12,9 C 57 % 1018,3 hPa 0,0 l/m 8,6 km/h (2 Bft) W 270 4,6 C 12,9 C
16.05.2012 18:01 13,0 C 56 % 1018,4 hPa 0,0 l/m 7,6 km/h (2 Bft) N-NO 22 4,4 C 13,0 C
16.05.2012 18:06 12,8 C 56 % 1018,5 hPa 0,0 l/m 14,4 km/h (3 Bft) NW 315 4,2 C 12,8 C
16.05.2012 18:11 12,9 C 56 % 1018,5 hPa 0,0 l/m 5,8 km/h (2 Bft) NW 315 4,3 C 12,9 C
16.05.2012 18:16 13,0 C 56 % 1018,4 hPa 0,0 l/m 8,3 km/h (2 Bft) W 270 4,4 C 13,0 C
16.05.2012 18:21 13,1 C 54 % 1018,4 hPa 0,0 l/m 12,2 km/h (2 Bft) W 270 4,0 C 13,1 C
16.05.2012 18:26 13,1 C 55 % 1018,4 hPa 0,0 l/m 14,4 km/h (3 Bft) W 270 4,3 C 13,1 C
16.05.2012 18:31 13,1 C 54 % 1018,5 hPa 0,0 l/m 7,2 km/h (2 Bft) NW 315 4,0 C 13,1 C
16.05.2012 18:36 13,3 C 55 % 1018,5 hPa 0,0 l/m 5,8 km/h (2 Bft) W-SW 247 4,5 C 13,3 C
16.05.2012 18:41 13,5 C 52 % 1018,6 hPa 0,0 l/m 17,3 km/h (3 Bft) W 270 3,8 C 13,5 C
16.05.2012 18:46 13,3 C 51 % 1018,6 hPa 0,0 l/m 11,9 km/h (2 Bft) W 270 3,4 C 13,3 C
16.05.2012 18:51 12,9 C 51 % 1018,8 hPa 0,0 l/m 12,2 km/h (2 Bft) NW 315 3,0 C 12,9 C
16.05.2012 18:56 12,7 C 53 % 1018,7 hPa 0,0 l/m 5,4 km/h (1 Bft) O-NO 67 3,4 C 12,7 C
16.05.2012 19:01 12,5 C 53 % 1018,8 hPa 0,0 l/m 8,3 km/h (2 Bft) NW 315 3,2 C 12,5 C
16.05.2012 19:06 12,3 C 54 % 1018,9 hPa 0,0 l/m 15,5 km/h (3 Bft) N 360 3,3 C 12,3 C
16.05.2012 19:11 12,3 C 55 % 1019,1 hPa 0,0 l/m 9,7 km/h (2 Bft) NW 315 3,5 C 12,3 C
16.05.2012 19:16 12,2 C 55 % 1019,2 hPa 0,0 l/m 6,5 km/h (2 Bft) N-NO 22 3,4 C 12,2 C
16.05.2012 19:21 12,1 C 56 % 1019,2 hPa 0,0 l/m 14,8 km/h (3 Bft) O-NO 67 3,6 C 12,1 C
16.05.2012 19:26 11,9 C 55 % 1019,3 hPa 0,0 l/m 5,4 km/h (1 Bft) N-NO 22 3,2 C 11,9 C
16.05.2012 19:31 11,9 C 56 % 1019,4 hPa 0,0 l/m 16,6 km/h (3 Bft) N-NW 337 3,4 C 11,9 C
16.05.2012 19:36 11,9 C 55 % 1019,5 hPa 0,0 l/m 4,7 km/h (1 Bft) NW 315 3,2 C 11,9 C
16.05.2012 19:41 11,9 C 56 % 1019,6 hPa 0,0 l/m 12,2 km/h (2 Bft) N-NW 337 3,4 C 11,9 C
16.05.2012 19:46 11,9 C 54 % 1019,7 hPa 0,0 l/m 5,8 km/h (2 Bft) NW 315 2,9 C 11,9 C
16.05.2012 19:51 11,6 C 53 % 1019,7 hPa 0,0 l/m 6,5 km/h (2 Bft) N 360 2,4 C 11,6 C
16.05.2012 19:56 11,4 C 55 % 1019,9 hPa 0,0 l/m 8,6 km/h (2 Bft) W-NW 292 2,7 C 11,4 C
16.05.2012 20:01 11,3 C 55 % 1020,0 hPa 0,0 l/m 5,0 km/h (1 Bft) NW 315 2,6 C 11,3 C
16.05.2012 20:06 11,3 C 55 % 1020,1 hPa 0,0 l/m 12,2 km/h (2 Bft) W-NW 292 2,6 C 11,3 C
16.05.2012 20:11 11,3 C 55 % 1020,1 hPa 0,0 l/m 1,8 km/h (1 Bft) N 360 2,6 C 11,3 C
16.05.2012 20:16 11,3 C 56 % 1020,0 hPa 0,0 l/m 8,3 km/h (2 Bft) W 270 2,8 C 11,3 C
16.05.2012 20:21 11,2 C 56 % 1020,1 hPa 0,0 l/m 4,3 km/h (1 Bft) O 90 2,8 C 11,2 C
16.05.2012 20:26 11,1 C 55 % 1020,2 hPa 0,0 l/m 18,7 km/h (3 Bft) NW 315 2,4 C 11,1 C
16.05.2012 20:31 10,8 C 55 % 1020,2 hPa 0,0 l/m 10,1 km/h (2 Bft) NW 315 2,1 C 10,8 C
16.05.2012 20:36 10,6 C 55 % 1020,3 hPa 0,0 l/m 7,9 km/h (2 Bft) NW 315 1,9 C 10,6 C
16.05.2012 20:41 10,4 C 55 % 1020,4 hPa 0,0 l/m 6,8 km/h (2 Bft) W 270 1,8 C 10,4 C
16.05.2012 20:46 10,3 C 56 % 1020,5 hPa 0,0 l/m 9,7 km/h (2 Bft) W-NW 292 1,9 C 10,3 C
16.05.2012 20:51 10,1 C 58 % 1020,5 hPa 0,0 l/m 4,3 km/h (1 Bft) O-SO 112 2,2 C 10,1 C
16.05.2012 20:56 9,9 C 58 % 1020,6 hPa 0,0 l/m 2,5 km/h (1 Bft) N 360 2,0 C 9,9 C
16.05.2012 21:01 9,8 C 59 % 1020,7 hPa 0,0 l/m 3,6 km/h (1 Bft) NW 315 2,2 C 9,8 C
16.05.2012 21:06 9,6 C 60 % 1020,8 hPa 0,0 l/m 5,8 km/h (2 Bft) W-NW 292 2,2 C 9,1 C
16.05.2012 21:11 9,5 C 60 % 1020,9 hPa 0,0 l/m 9,0 km/h (2 Bft) NW 315 2,1 C 8,2 C
16.05.2012 21:16 9,4 C 60 % 1021,0 hPa 0,0 l/m 1,8 km/h (1 Bft) W 270 2,0 C 9,4 C
16.05.2012 21:21 9,3 C 60 % 1021,1 hPa 0,0 l/m 6,1 km/h (2 Bft) W-NW 292 1,9 C 8,6 C
16.05.2012 21:26 9,3 C 60 % 1021,1 hPa 0,0 l/m 8,3 km/h (2 Bft) NW 315 1,9 C 8,1 C
16.05.2012 21:31 9,1 C 60 % 1021,1 hPa 0,0 l/m 5,0 km/h (1 Bft) W 270 1,8 C 8,7 C
16.05.2012 21:36 8,9 C 60 % 1021,2 hPa 0,0 l/m 5,8 km/h (2 Bft) W-NW 292 1,6 C 8,3 C
16.05.2012 21:41 8,9 C 61 % 1021,1 hPa 0,0 l/m 5,8 km/h (2 Bft) NW 315 1,8 C 8,3 C
16.05.2012 21:46 8,7 C 61 % 1021,1 hPa 0,0 l/m 5,0 km/h (1 Bft) W 270 1,6 C 8,3 C
16.05.2012 21:51 8,6 C 61 % 1021,1 hPa 0,0 l/m 4,0 km/h (1 Bft) W-NW 292 1,5 C 8,6 C
16.05.2012 21:56 8,5 C 62 % 1021,2 hPa 0,0 l/m 8,3 km/h (2 Bft) W-NW 292 1,6 C 7,2 C
16.05.2012 22:01 8,4 C 62 % 1021,2 hPa 0,0 l/m 4,7 km/h (1 Bft) W 270 1,6 C 8,0 C
16.05.2012 22:06 8,3 C 62 % 1021,3 hPa 0,0 l/m 4,7 km/h (1 Bft) W-NW 292 1,5 C 7,9 C
16.05.2012 22:11 8,2 C 63 % 1021,3 hPa 0,0 l/m 2,2 km/h (1 Bft) W-SW 247 1,6 C 8,2 C
16.05.2012 22:16 8,2 C 63 % 1021,4 hPa 0,0 l/m 3,6 km/h (1 Bft) SW 225 1,6 C 8,2 C
16.05.2012 22:21 8,1 C 64 % 1021,4 hPa 0,0 l/m 4,3 km/h (1 Bft) W 270 1,7 C 8,1 C
16.05.2012 22:26 8,1 C 64 % 1021,4 hPa 0,0 l/m 12,6 km/h (3 Bft) W 270 1,7 C 5,9 C
16.05.2012 22:31 7,9 C 64 % 1021,5 hPa 0,0 l/m 7,2 km/h (2 Bft) NW 315 1,5 C 6,7 C
16.05.2012 22:36 7,8 C 64 % 1021,5 hPa 0,0 l/m 8,6 km/h (2 Bft) W-NW 292 1,4 C 6,3 C
16.05.2012 22:41 7,6 C 64 % 1021,6 hPa 0,0 l/m 9,4 km/h (2 Bft) W 270 1,2 C 5,9 C
16.05.2012 22:46 7,5 C 65 % 1021,6 hPa 0,0 l/m 8,3 km/h (2 Bft) NW 315 1,4 C 6,0 C
16.05.2012 22:51 7,4 C 65 % 1021,5 hPa 0,0 l/m 13,0 km/h (3 Bft) W-NW 292 1,3 C 5,0 C
16.05.2012 22:56 7,3 C 65 % 1021,6 hPa 0,0 l/m 7,6 km/h (2 Bft) W 270 1,2 C 5,9 C
16.05.2012 23:01 7,2 C 65 % 1021,7 hPa 0,0 l/m 10,1 km/h (2 Bft) W-NW 292 1,1 C 5,3 C
16.05.2012 23:06 7,2 C 66 % 1021,6 hPa 0,0 l/m 2,5 km/h (1 Bft) W-NW 292 1,3 C 7,2 C
16.05.2012 23:11 7,1 C 66 % 1021,7 hPa 0,0 l/m 5,8 km/h (2 Bft) W 270 1,2 C 6,2 C
16.05.2012 23:16 7,0 C 66 % 1021,7 hPa 0,0 l/m 7,2 km/h (2 Bft) W 270 1,1 C 5,7 C
16.05.2012 23:21 6,9 C 67 % 1021,7 hPa 0,0 l/m 7,6 km/h (2 Bft) W-NW 292 1,2 C 5,5 C
16.05.2012 23:26 6,9 C 67 % 1021,6 hPa 0,0 l/m 4,0 km/h (1 Bft) W-NW 292 1,2 C 6,9 C
16.05.2012 23:31 6,9 C 67 % 1021,5 hPa 0,0 l/m 6,1 km/h (2 Bft) W-NW 292 1,2 C 5,9 C
16.05.2012 23:36 6,9 C 67 % 1021,5 hPa 0,0 l/m 5,0 km/h (1 Bft) NW 315 1,2 C 6,2 C
16.05.2012 23:41 6,9 C 67 % 1021,5 hPa 0,0 l/m 6,8 km/h (2 Bft) W-NW 292 1,2 C 5,7 C
16.05.2012 23:46 6,8 C 68 % 1021,5 hPa 0,0 l/m 7,6 km/h (2 Bft) W 270 1,3 C 5,3 C
16.05.2012 23:51 6,7 C 68 % 1021,6 hPa 0,0 l/m 3,2 km/h (1 Bft) W 270 1,2 C 6,7 C
16.05.2012 23:56 6,6 C 69 % 1021,5 hPa 0,0 l/m 8,3 km/h (2 Bft) W 270 1,3 C 4,9 C
_ Min-Zeit 23:56 18:46 00:01 - 20:11 - - 23:01 04:51
Minimum _ 6,6 C 51 % 1009,1 hPa - 1,8 km/h (1 Bft) - - 1,1 C 4,4 C
_ Max-Zeit 13:01 06:01 23:01 14:11 10:26 - - 00:01 13:01
Maximum _ 13,8 C 85 % 1021,7 hPa 0,5 l/m 29,5 km/h
W-NW (5 Bft)
- - 7,2 C 13,8 C
Durchschnitt _ 10,0 C 70 % 1015,4 hPa #1,0 l/m 10,4 km/h (2 Bft) W - 4,6 C 9,3 C
(c) by David Heller